GW1476 Weather Reports


time (UTC)temp
C
wind
direction
speed
KPH
gust
KPH
rain 1hr
cm
rain 24hr
cm
rain mn
cm
humidity
%
barometer
mb
20260510063923 9 293 0.0 0.0 0.00 0.00 0.00 99 1014.9
20260510063330 9 315 0.0 0.0 0.00 0.00 0.00 99 1014.9
20260510062709 10 0 0.0 0.0 0.00 0.00 0.00 99 1014.9
20260510062146 10 225 0.0 0.0 0.00 0.00 0.00 99 1014.9
20260510061534 10 270 0.0 0.0 0.00 0.00 0.00 99 1014.9
20260510060949 10 158 3.2 3.2 0.00 0.00 0.00 99 1014.9
20260510060341 10 270 0.0 0.0 0.00 0.00 0.00 99 1014.9
20260510055725 9 338 0.0 0.0 0.00 0.00 0.00 99 1015.2
20260510055118 10 270 0.0 0.0 0.00 0.00 0.00 99 1014.9
20260510054538 10 270 0.0 0.0 0.00 0.00 0.00 99 1015.2
20260510053314 10 315 0.0 0.0 0.00 0.00 0.00 99 1015.2
20260510052149 10 248 0.0 0.0 0.00 0.00 0.00 99 1015.2
20260510051548 10 270 0.0 0.0 0.00 0.00 0.00 99 1015.2
20260510050912 10 248 0.0 1.6 0.00 0.00 0.00 99 1015.2
20260510050332 10 270 0.0 0.0 0.00 0.00 0.00 99 1015.2
20260510045721 10 225 0.0 0.0 0.00 0.00 0.00 99 1015.2
20260510045110 10 248 0.0 0.0 0.00 0.00 0.00 99 1015.2
20260510043931 10 203 0.0 0.0 0.00 0.00 0.00 99 1015.2
20260510043338 10 113 0.0 0.0 0.00 0.00 0.00 99 1015.2
20260510042711 10 203 0.0 0.0 0.00 0.00 0.00 99 1015.2
20260510042145 10 225 0.0 0.0 0.00 0.00 0.00 99 1015.2
20260510041533 11 203 0.0 0.0 0.00 0.00 0.00 99 1015.2
20260510040924 11 270 0.0 0.0 0.00 0.00 0.00 99 1015.2
20260510040343 10 315 0.0 0.0 0.00 0.00 0.00 99 1015.2
20260510035747 11 225 0.0 1.6 0.00 0.00 0.00 99 1015.2
20260510035123 11 225 0.0 0.0 0.00 0.00 0.00 99 1015.2
20260510034541 11 203 0.0 0.0 0.00 0.00 0.00 99 1015.2
20260510033909 11 225 0.0 0.0 0.00 0.00 0.00 99 1015.2
20260510033316 11 225 0.0 0.0 0.00 0.00 0.00 99 1015.2
20260510032752 11 203 0.0 1.6 0.00 0.00 0.00 99 1014.9
20260510032147 11 203 0.0 0.0 0.00 0.00 0.00 99 1014.9
20260510031524 11 225 0.0 0.0 0.00 0.00 0.00 99 1014.9
20260510030919 11 225 0.0 0.0 0.00 0.00 0.00 99 1014.9
20260510030328 11 225 0.0 0.0 0.00 0.00 0.00 99 1014.9
20260510025732 11 225 0.0 0.0 0.00 0.00 0.00 99 1014.5
20260510025122 12 225 0.0 0.0 0.00 0.00 0.00 99 1014.5
20260510023940 12 203 0.0 0.0 0.00 0.00 0.00 99 1014.5
20260510022739 12 225 0.0 0.0 0.00 0.00 0.00 99 1014.2
20260510021510 12 270 0.0 0.0 0.00 0.00 0.00 99 1014.2
20260510020952 12 225 0.0 0.0 0.00 0.00 0.00 99 1013.8
20260510015740 13 248 0.0 0.0 0.00 0.00 0.00 99 1013.8
20260510015143 13 203 0.0 0.0 0.00 0.00 0.00 99 1013.8
20260510014511 13 203 0.0 0.0 0.00 0.00 0.00 99 1013.5
20260510013946 13 203 0.0 0.0 0.00 0.00 0.00 99 1013.5
20260510012725 14 225 0.0 3.2 0.00 0.00 0.00 99 1013.5
20260510012131 14 180 1.6 1.6 0.00 0.00 0.00 99 1013.5
20260510011556 15 203 0.0 0.0 0.00 0.00 0.00 96 1013.2
20260510010951 15 315 0.0 1.6 0.00 0.00 0.00 94 1013.2
20260510010348 15 225 0.0 3.2 0.00 0.00 0.00 95 1013.2
20260510005143 15 203 0.0 1.6 0.00 0.00 0.00 91 1012.8
20260510004550 16 203 0.0 0.0 0.00 0.00 0.00 88 1012.8
20260510003307 17 180 0.0 0.0 0.00 0.00 0.00 85 1012.8
20260510002716 17 315 3.2 3.2 0.00 0.00 0.00 84 1012.8
20260510001511 17 180 4.8 4.8 0.00 0.00 0.00 83 1012.5
20260510000943 18 203 1.6 3.2 0.00 0.00 0.00 79 1012.5
20260510000349 19 225 0.0 3.2 0.00 0.00 0.00 76 1012.5
20260509235710 20 203 0.0 1.6 0.00 0.00 0.00 72 1012.5
20260509235126 21 338 1.6 1.6 0.00 0.00 0.00 67 1012.1
20260509234543 21 23 4.8 4.8 0.00 0.00 0.00 66 1012.1
20260509233949 22 338 1.6 3.2 0.00 0.00 0.00 66 1012.1
20260509233339 22 45 1.6 4.8 0.00 0.00 0.00 65 1012.5
20260509232130 23 270 3.2 3.2 0.00 0.00 0.00 62 1012.1
20260509231509 23 203 1.6 3.2 0.00 0.00 0.00 63 1012.5
20260509230951 23 23 4.8 6.4 0.00 0.00 0.00 62 1012.1
20260509230332 23 113 8.0 8.0 0.00 0.00 0.00 62 1012.1
20260509225146 23 270 3.2 3.2 0.00 0.00 0.00 62 1012.1
20260509224535 23 90 1.6 4.8 0.00 0.00 0.00 62 1012.1
20260509223928 23 315 1.6 6.4 0.00 0.00 0.00 62 1012.1
20260509223343 23 0 4.8 8.0 0.00 0.00 0.00 62 1012.1
20260509222130 22 203 6.4 6.4 0.00 0.00 0.00 64 1012.5
20260509220918 22 45 4.8 8.0 0.00 0.00 0.00 64 1012.5
20260509220326 22 45 1.6 6.4 0.00 0.00 0.00 63 1012.5
20260509215723 23 338 6.4 6.4 0.00 0.00 0.00 62 1012.5
20260509215134 23 270 6.4 6.4 0.00 0.00 0.00 63 1012.5
20260509214520 23 135 6.4 6.4 0.00 0.00 0.00 62 1012.1
20260509213335 22 113 4.8 8.0 0.00 0.00 0.00 65 1012.5
20260509212739 22 225 4.8 4.8 0.00 0.00 0.00 64 1012.5
20260509212145 22 203 6.4 6.4 0.00 0.00 0.00 64 1012.5
20260509211542 22 203 3.2 4.8 0.00 0.00 0.00 65 1012.5
20260509210931 22 293 4.8 4.8 0.00 0.00 0.00 65 1012.5
20260509210318 21 68 4.8 4.8 0.00 0.00 0.00 65 1012.5
20260509205747 22 68 4.8 4.8 0.00 0.00 0.00 64 1012.5
20260509205134 22 23 9.7 11.3 0.00 0.00 0.00 64 1012.5
20260509204537 22 338 8.0 9.7 0.00 0.00 0.00 64 1012.5
20260509203950 22 68 8.0 9.7 0.00 0.00 0.00 64 1012.5
20260509203321 22 270 6.4 6.4 0.00 0.00 0.00 64 1012.1
20260509202753 22 203 4.8 9.7 0.00 0.00 0.00 64 1012.1
20260509202126 22 23 6.4 6.4 0.00 0.00 0.00 63 1012.1
20260509201532 22 338 4.8 6.4 0.00 0.00 0.00 63 1012.1
20260509200939 22 90 4.8 4.8 0.00 0.00 0.00 64 1012.1
20260509200309 21 203 8.0 8.0 0.00 0.00 0.00 65 1012.1
20260509195125 22 248 4.8 8.0 0.00 0.00 0.00 64 1012.1
20260509193915 22 158 3.2 4.8 0.00 0.00 0.00 64 1012.1
20260509193337 22 23 3.2 6.4 0.00 0.00 0.00 64 1012.1
20260509192748 21 248 1.6 6.4 0.00 0.00 0.00 65 1012.1
20260509191528 21 293 3.2 4.8 0.00 0.00 0.00 66 1012.1
20260509190313 21 338 4.8 9.7 0.00 0.00 0.00 64 1012.1
20260509185750 21 225 4.8 6.4 0.00 0.00 0.00 65 1012.1
20260509185114 21 225 1.6 4.8 0.00 0.00 0.00 63 1012.1
20260509184531 21 0 4.8 6.4 0.00 0.00 0.00 63 1012.1
20260509183936 21 45 6.4 11.3 0.00 0.00 0.00 63 1012.1
20260509183343 22 293 6.4 9.7 0.00 0.00 0.00 60 1012.1
20260509182727 23 338 4.8 8.0 0.00 0.00 0.00 59 1012.1
20260509182153 23 158 3.2 3.2 0.00 0.00 0.00 59 1012.1
20260509181515 22 203 3.2 4.8 0.00 0.00 0.00 63 1012.1
20260509180942 21 225 4.8 6.4 0.00 0.00 0.00 64 1012.1
20260509180315 22 90 1.6 6.4 0.00 0.00 0.00 62 1012.1
20260509175737 22 180 6.4 8.0 0.00 0.00 0.00 60 1012.1
20260509175152 22 338 4.8 8.0 0.00 0.00 0.00 63 1012.5
20260509174526 21 225 4.8 4.8 0.00 0.00 0.00 64 1012.5
20260509173311 21 0 3.2 6.4 0.00 0.00 0.00 64 1012.5
20260509172726 21 203 4.8 4.8 0.00 0.00 0.00 65 1012.5
20260509171510 20 203 8.0 11.3 0.00 0.00 0.00 63 1012.5
20260509170921 21 270 4.8 6.4 0.00 0.00 0.00 63 1012.8
20260509170323 21 315 8.0 9.7 0.00 0.00 0.00 63 1012.8
20260509165719 22 270 3.2 8.0 0.00 0.00 0.00 60 1012.8
20260509165133 22 203 3.2 4.8 0.00 0.00 0.00 62 1012.8
20260509164539 21 293 3.2 3.2 0.00 0.00 0.00 63 1012.8
20260509163934 20 23 3.2 8.0 0.00 0.00 0.00 65 1012.8
20260509162115 20 113 3.2 3.2 0.00 0.00 0.00 67 1012.8
20260509161540 20 203 3.2 3.2 0.00 0.00 0.00 67 1012.8
20260509160930 20 248 1.6 9.7 0.00 0.00 0.00 66 1012.5
20260509160345 20 293 1.6 8.0 0.00 0.00 0.00 65 1012.5
20260509155716 20 23 3.2 9.7 0.00 0.00 0.00 65 1012.8
20260509154540 20 270 8.0 8.0 0.00 0.00 0.00 66 1012.5
20260509153940 20 135 6.4 6.4 0.00 0.00 0.00 66 1012.5
20260509153324 20 158 3.2 9.7 0.00 0.00 0.00 67 1012.5
20260509152128 20 270 3.2 8.0 0.00 0.00 0.00 67 1012.5
20260509150915 19 338 4.8 8.0 0.00 0.00 0.00 68 1012.5
20260509150315 19 23 4.8 4.8 0.00 0.00 0.00 69 1012.5
20260509145741 19 338 4.8 4.8 0.00 0.00 0.00 69 1012.5
20260509145127 18 23 3.2 4.8 0.00 0.00 0.00 70 1012.8
20260509144508 18 225 0.0 0.0 0.00 0.00 0.00 71 1012.5
20260509143907 18 180 0.0 0.0 0.00 0.00 0.00 71 1012.8
20260509142747 19 270 0.0 0.0 0.00 0.00 0.00 70 1012.5
20260509141517 19 270 0.0 0.0 0.00 0.00 0.00 68 1012.8
20260509140924 18 23 0.0 0.0 0.00 0.00 0.00 69 1012.8
20260509140344 18 315 0.0 0.0 0.00 0.00 0.00 70 1012.8
20260509135710 17 0 0.0 0.0 0.00 0.00 0.00 72 1012.8
20260509135112 17 338 0.0 0.0 0.00 0.00 0.00 74 1012.5
20260509134545 17 338 0.0 0.0 0.00 0.00 0.00 74 1012.5
20260509133914 17 248 0.0 0.0 0.00 0.00 0.00 75 1012.5
20260509132743 16 180 0.0 0.0 0.00 0.00 0.00 77 1012.1
20260509132132 16 203 0.0 0.0 0.00 0.00 0.00 78 1012.1
20260509131511 15 180 0.0 0.0 0.00 0.00 0.00 83 1012.5
20260509130917 13 203 0.0 0.0 0.00 0.00 0.00 86 1012.5
20260509130311 13 203 0.0 3.2 0.00 0.00 0.00 85 1012.5
20260509125721 13 203 0.0 0.0 0.00 0.00 0.00 86 1012.5
20260509125123 13 225 0.0 0.0 0.00 0.00 0.00 86 1012.5
20260509123935 12 180 0.0 0.0 0.00 0.00 0.00 88 1012.5
20260509123351 13 203 0.0 0.0 0.00 0.00 0.00 87 1012.8
20260509122746 12 203 0.0 0.0 0.00 0.00 0.00 90 1012.5
20260509122142 12 225 0.0 0.0 0.00 0.00 0.00 89 1012.5
20260509121510 12 180 0.0 0.0 0.00 0.00 0.00 91 1012.5
20260509120914 11 203 0.0 0.0 0.00 0.00 0.00 93 1012.8
20260509120320 11 203 0.0 0.0 0.00 0.00 0.00 94 1012.8
20260509115739 10 203 0.0 0.0 0.00 0.00 0.00 98 1012.8
20260509115122 10 225 0.0 0.0 0.00 0.00 0.00 99 1012.8
20260509113926 9 225 0.0 0.0 0.00 0.00 0.00 99 1012.8
20260509113325 8 203 0.0 0.0 0.00 0.00 0.00 99 1012.8
20260509112131 8 180 3.2 3.2 0.00 0.00 0.00 99 1012.8
20260509110934 8 180 0.0 1.6 0.00 0.00 0.00 99 1012.8
20260509110313 8 203 0.0 0.0 0.00 0.00 0.00 99 1012.8
20260509104545 8 338 1.6 1.6 0.00 0.00 0.00 99 1012.8
20260509103940 8 315 0.0 0.0 0.00 0.00 0.00 99 1012.8
20260509103314 7 270 0.0 0.0 0.00 0.00 0.00 99 1012.8
20260509102735 8 270 0.0 0.0 0.00 0.00 0.00 99 1012.8
20260509102123 7 248 0.0 0.0 0.00 0.00 0.00 99 1012.8
20260509101514 8 23 0.0 0.0 0.00 0.00 0.00 99 1012.8
20260509100920 8 315 0.0 0.0 0.00 0.00 0.00 99 1012.8
20260509100325 8 270 0.0 0.0 0.00 0.00 0.00 99 1012.5
20260509095736 8 248 0.0 0.0 0.00 0.00 0.00 99 1012.5
20260509095147 8 315 0.0 0.0 0.00 0.00 0.00 99 1012.5
20260509094533 8 270 0.0 0.0 0.00 0.00 0.00 99 1012.8
20260509093330 8 225 0.0 0.0 0.00 0.00 0.00 99 1012.8
20260509092117 8 315 0.0 0.0 0.00 0.00 0.00 99 1012.8
20260509090945 8 270 0.0 0.0 0.00 0.00 0.00 99 1012.8
20260509090350 8 270 0.0 0.0 0.00 0.00 0.00 99 1012.8
20260509085712 8 270 0.0 0.0 0.00 0.00 0.00 99 1012.8
20260509085139 8 338 0.0 0.0 0.00 0.00 0.00 99 1012.8
20260509084533 8 270 0.0 0.0 0.00 0.00 0.00 99 1012.8
20260509083918 8 23 0.0 0.0 0.00 0.00 0.00 99 1013.2
20260509083337 8 270 0.0 0.0 0.00 0.00 0.00 99 1012.8
20260509082748 8 270 0.0 0.0 0.00 0.00 0.00 99 1012.8
20260509080323 8 293 0.0 0.0 0.00 0.00 0.00 99 1013.2
20260509075754 8 270 0.0 0.0 0.00 0.00 0.00 99 1013.2
20260509075135 8 315 0.0 0.0 0.00 0.00 0.00 99 1013.2
20260509073323 8 270 0.0 0.0 0.00 0.00 0.00 99 1013.2
20260509072738 8 0 0.0 0.0 0.00 0.00 0.00 99 1013.2
20260509071519 8 315 0.0 0.0 0.00 0.00 0.00 99 1013.2
20260509070324 8 293 0.0 0.0 0.00 0.00 0.00 99 1013.2
20260509065751 7 270 0.0 0.0 0.00 0.00 0.00 99 1013.2
20260509064519 8 203 0.0 0.0 0.00 0.00 0.00 99 1012.8